GW0828 Weather Reports


Display with metric or nautical units.
time (UTC)temp
F
wind
direction
speed
MPH
gust
MPH
rain 1hr
in
rain 24hr
in
rain mn
in
humidity
%
barometer
mb
20260902024038 72 347 2.0 5.0 0.00 0.02 0.00 47 1017.3
20260902023538 73 61 2.0 6.0 0.00 0.02 0.00 47 1017.2
20260902023059 73 59 2.0 7.0 0.00 0.02 0.00 45 1017.2
20260902022539 73 78 2.0 7.0 0.00 0.02 0.00 45 1017.1
20260902022042 73 77 2.0 6.0 0.00 0.02 0.00 44 1017.1
20260902021557 73 73 2.0 5.0 0.00 0.02 0.00 44 1017.1
20260902021039 73 69 2.0 4.0 0.00 0.02 0.00 46 1017.1
20260902020539 73 76 1.0 4.0 0.00 0.02 0.00 49 1017.0
20260902020053 73 347 2.0 3.0 0.00 0.02 0.00 49 1017.0
20260902015545 73 162 0.0 4.0 0.00 0.02 0.00 50 1017.0
20260902015039 74 0 1.0 4.0 0.00 0.02 0.00 50 1016.9
20260902014558 75 176 1.0 3.0 0.00 0.02 0.00 48 1016.8
20260902014038 75 123 0.0 4.0 0.00 0.02 0.00 44 1016.8
20260902013540 76 325 1.0 4.0 0.00 0.02 0.00 41 1016.8
20260902013059 76 0 1.0 4.0 0.00 0.02 0.00 41 1016.8
20260902012541 76 0 1.0 3.0 0.00 0.02 0.00 42 1016.8
20260902012038 77 0 0.0 3.0 0.00 0.02 0.00 42 1016.7
20260902011556 78 347 0.0 6.0 0.00 0.02 0.00 39 1016.7
20260902011041 78 0 2.0 6.0 0.00 0.02 0.00 37 1016.6
20260902010539 78 333 2.0 8.0 0.00 0.02 0.00 37 1016.7
20260902010055 78 293 2.0 13.0 0.00 0.02 0.00 37 1016.8
20260902005538 78 6 2.0 13.0 0.00 0.02 0.00 38 1016.9
20260902005037 78 342 2.0 11.0 0.00 0.02 0.00 37 1016.8
20260902004603 78 21 1.0 8.0 0.00 0.02 0.00 39 1016.9
20260902004038 78 29 2.0 7.0 0.00 0.02 0.00 39 1016.9
20260902003539 78 342 2.0 9.0 0.00 0.02 0.00 38 1017.0
20260902003133 79 21 3.0 10.0 0.00 0.02 0.00 38 1016.9
20260902002538 79 6 2.0 10.0 0.00 0.02 0.00 36 1017.0
20260902002038 80 329 3.0 12.0 0.00 0.02 0.00 36 1017.1
20260902001554 80 356 3.0 12.0 0.00 0.02 0.00 35 1017.1
20260902001042 80 293 4.0 12.0 0.00 0.02 0.00 36 1017.1
20260902000538 80 327 3.0 11.0 0.00 0.02 0.00 35 1017.1
20260902000100 80 329 3.0 12.0 0.00 0.02 0.00 34 1017.1
20260901235538 80 246 3.0 12.0 0.00 0.02 0.00 35 1017.1
20260901235038 80 278 5.0 12.0 0.00 0.02 0.00 33 1017.1
20260901234558 80 313 5.0 12.0 0.00 0.02 0.00 33 1017.0
20260901234039 81 347 4.0 9.0 0.00 0.02 0.00 36 1017.1
20260901233538 81 347 3.0 9.0 0.00 0.02 0.00 35 1017.0
20260901233056 82 287 2.0 12.0 0.00 0.02 0.00 35 1017.0
20260901232538 82 299 4.0 12.0 0.00 0.02 0.00 34 1017.1
20260901232039 83 334 5.0 13.0 0.00 0.02 0.00 33 1017.1
20260901231603 83 273 4.0 13.0 0.00 0.02 0.00 33 1017.2
20260901231038 83 320 4.0 15.0 0.00 0.02 0.00 34 1017.1
20260901230538 83 342 4.0 15.0 0.00 0.02 0.00 33 1017.0
20260901230054 84 322 5.0 11.0 0.00 0.02 0.00 30 1017.0
20260901225538 84 307 4.0 11.0 0.00 0.02 0.00 30 1016.9
20260901225036 84 314 3.0 11.0 0.00 0.02 0.00 32 1017.0
20260901224555 84 83 3.0 8.0 0.00 0.02 0.00 32 1016.8
20260901224036 84 15 1.0 8.0 0.00 0.02 0.00 31 1016.8
20260901223536 84 77 3.0 15.0 0.00 0.02 0.00 28 1016.8
20260901223057 84 282 3.0 15.0 0.00 0.02 0.00 32 1016.8
20260901222536 84 83 4.0 8.0 0.00 0.02 0.00 33 1016.8
20260901222038 84 0 1.0 7.0 0.00 0.02 0.00 30 1016.6
20260901221616 84 76 2.0 7.0 0.00 0.02 0.00 30 1016.8
20260901221038 84 121 1.0 10.0 0.00 0.02 0.00 28 1016.7
20260901220534 84 19 3.0 10.0 0.00 0.02 0.00 26 1016.7
20260901220057 84 83 2.0 6.0 0.00 0.02 0.00 27 1016.7
20260901215537 84 126 2.0 7.0 0.00 0.02 0.00 26 1016.8
20260901215040 84 177 2.0 7.0 0.00 0.02 0.00 26 1016.9
20260901214557 84 187 2.0 6.0 0.00 0.02 0.00 29 1017.0
20260901214037 83 172 1.0 7.0 0.00 0.02 0.00 27 1016.9
20260901213537 83 180 2.0 7.0 0.00 0.02 0.00 29 1017.1
20260901213053 83 192 3.0 7.0 0.00 0.02 0.00 31 1017.2
20260901212537 82 0 1.0 6.0 0.00 0.02 0.00 32 1017.4
20260901212038 82 258 1.0 6.0 0.00 0.02 0.00 35 1017.4
20260901211557 82 0 1.0 6.0 0.00 0.02 0.00 33 1017.4
20260901211037 81 342 0.0 3.0 0.00 0.02 0.00 39 1017.5
20260901210537 81 0 0.0 2.0 0.00 0.02 0.00 38 1017.6
20260901210129 80 0 0.0 3.0 0.00 0.02 0.00 39 1017.7
20260901205537 79 0 0.0 3.0 0.00 0.02 0.00 43 1017.9
20260901205036 79 0 0.0 3.0 0.00 0.02 0.00 42 1017.9
20260901204555 78 0 0.0 6.0 0.00 0.02 0.00 44 1018.1
20260901204036 78 39 1.0 12.0 0.00 0.02 0.00 44 1018.1
20260901203537 79 289 5.0 12.0 0.00 0.02 0.00 46 1018.4
20260901203058 80 322 2.0 10.0 0.00 0.02 0.00 43 1018.2
20260901202537 81 320 5.0 10.0 0.00 0.02 0.00 40 1018.1
20260901202036 82 317 3.0 9.0 0.00 0.02 0.00 38 1017.9
20260901201601 82 36 2.0 6.0 0.00 0.02 0.00 36 1017.9
20260901201037 82 174 2.0 6.0 0.00 0.02 0.00 35 1017.8
20260901200537 82 342 0.0 8.0 0.00 0.02 0.00 34 1017.9
20260901200057 82 132 4.0 9.0 0.00 0.02 0.00 37 1018.0
20260901195537 82 91 4.0 12.0 0.00 0.02 0.00 34 1017.9
20260901195039 82 91 5.0 12.0 0.00 0.02 0.00 38 1017.9
20260901194603 82 106 5.0 12.0 0.00 0.02 0.00 39 1017.8
20260901194043 82 133 3.0 11.0 0.00 0.02 0.00 38 1018.0
20260901193539 82 118 5.0 11.0 0.00 0.02 0.00 41 1018.0
20260901193106 82 115 5.0 10.0 0.00 0.02 0.00 36 1018.1
20260901192542 82 97 4.0 10.0 0.00 0.02 0.00 42 1018.3
20260901192040 82 153 2.0 10.0 0.00 0.02 0.00 37 1018.3
20260901191602 82 174 4.0 10.0 0.00 0.02 0.00 38 1018.3
20260901191042 81 104 3.0 10.0 0.00 0.02 0.00 43 1018.4
20260901190538 82 80 4.0 10.0 0.00 0.02 0.00 41 1018.4
20260901190120 81 105 3.0 11.0 0.00 0.02 0.00 43 1018.4
20260901185538 81 142 2.0 12.0 0.00 0.02 0.00 44 1018.5
20260901185037 81 115 6.0 12.0 0.00 0.02 0.00 41 1018.6
20260901184556 81 158 6.0 12.0 0.00 0.02 0.00 42 1018.7
20260901184039 81 100 4.0 12.0 0.00 0.02 0.00 48 1018.7
20260901183539 80 154 5.0 12.0 0.00 0.02 0.00 44 1018.7
20260901183053 80 83 5.0 11.0 0.00 0.02 0.00 46 1018.8
20260901182539 80 103 6.0 16.0 0.00 0.02 0.00 48 1018.8
20260901182038 80 106 6.0 16.0 0.00 0.02 0.00 48 1018.9
20260901181600 80 97 5.0 14.0 0.00 0.02 0.00 44 1019.1
20260901181037 79 156 5.0 16.0 0.00 0.02 0.00 46 1019.2
20260901180538 80 111 4.0 16.0 0.00 0.02 0.00 41 1019.3
20260901180057 79 77 3.0 9.0 0.00 0.02 0.00 41 1019.4
20260901175538 79 198 4.0 9.0 0.00 0.02 0.00 41 1019.5
20260901175038 78 106 4.0 9.0 0.00 0.02 0.00 49 1019.5
20260901174557 78 165 2.0 9.0 0.00 0.02 0.00 46 1019.6
20260901174038 78 141 3.0 9.0 0.00 0.02 0.00 44 1019.6
20260901173538 77 104 3.0 9.0 0.00 0.02 0.00 51 1019.7
20260901173100 77 126 3.0 8.0 0.00 0.02 0.00 51 1019.8
20260901172538 77 120 2.0 8.0 0.00 0.02 0.00 55 1019.8
20260901172038 77 112 3.0 8.0 0.00 0.02 0.00 53 1019.8
20260901171632 76 152 2.0 7.0 0.00 0.02 0.00 61 1019.8
20260901171037 76 100 2.0 7.0 0.00 0.02 0.00 58 1019.8
20260901170538 76 113 2.0 5.0 0.00 0.02 0.00 61 1020.0
20260901170105 75 123 2.0 6.0 0.00 0.02 0.00 60 1019.8
20260901165538 75 129 2.0 6.0 0.00 0.02 0.00 64 1019.8
20260901165038 74 78 1.0 6.0 0.00 0.02 0.00 64 1019.8
20260901164617 73 79 1.0 6.0 0.00 0.02 0.00 63 1019.8
20260901164040 73 78 0.0 6.0 0.00 0.02 0.00 67 1019.8
20260901163538 72 94 2.0 6.0 0.00 0.02 0.00 66 1019.8
20260901163116 72 78 1.0 4.0 0.00 0.02 0.00 66 1019.8
20260901162537 72 200 0.0 4.0 0.00 0.02 0.00 71 1019.8
20260901162037 71 85 1.0 4.0 0.00 0.02 0.00 72 1019.8
20260901161601 71 108 2.0 4.0 0.00 0.02 0.00 72 1019.7
20260901161038 70 106 2.0 4.0 0.00 0.02 0.00 72 1019.8
20260901160537 68 165 1.0 3.0 0.00 0.02 0.00 77 1019.9
20260901160058 68 0 0.0 3.0 0.00 0.02 0.00 74 1019.9
20260901155540 67 209 1.0 3.0 0.00 0.02 0.00 75 1020.0
20260901155038 67 0 0.0 1.0 0.00 0.02 0.00 76 1020.1
20260901154600 66 0 0.0 2.0 0.00 0.02 0.00 78 1020.1
20260901154038 66 0 0.0 3.0 0.00 0.02 0.00 79 1020.0
20260901153538 66 257 0.0 3.0 0.00 0.02 0.00 80 1020.0
20260901153058 65 257 0.0 3.0 0.00 0.02 0.00 80 1020.2
20260901152537 65 158 0.0 4.0 0.00 0.02 0.00 80 1020.1
20260901152038 65 228 0.0 4.0 0.00 0.02 0.00 80 1020.3
20260901151600 65 260 1.0 4.0 0.00 0.02 0.00 81 1020.1
20260901151038 64 0 1.0 3.0 0.00 0.02 0.00 82 1020.1
20260901150537 64 218 1.0 3.0 0.00 0.02 0.00 83 1020.1
20260901150105 64 0 1.0 4.0 0.00 0.02 0.00 83 1020.1
20260901145537 64 228 2.0 4.0 0.00 0.02 0.00 84 1020.3
20260901145037 63 127 1.0 3.0 0.00 0.02 0.00 84 1020.2
20260901144604 63 57 1.0 5.0 0.00 0.02 0.00 84 1020.1
20260901144037 63 0 1.0 5.0 0.00 0.02 0.00 85 1020.3
20260901143540 63 215 1.0 4.0 0.00 0.02 0.00 85 1020.3
20260901143105 63 0 0.0 1.0 0.00 0.02 0.00 85 1020.2
20260901142538 63 0 0.0 1.0 0.00 0.02 0.00 85 1020.3
20260901142038 62 0 0.0 2.0 0.00 0.02 0.00 86 1020.3
20260901141559 62 0 0.0 2.0 0.00 0.02 0.00 86 1020.2
20260901141038 62 258 0.0 2.0 0.00 0.02 0.00 86 1020.4
20260901140538 62 0 0.0 2.0 0.00 0.02 0.00 86 1020.2
20260901140104 62 0 0.0 2.0 0.00 0.02 0.00 86 1020.1
20260901135538 62 258 0.0 2.0 0.00 0.02 0.00 86 1020.2
20260901135038 62 0 0.0 3.0 0.00 0.02 0.00 86 1020.1
20260901134605 62 258 1.0 3.0 0.00 0.02 0.00 86 1020.1
20260901134039 61 0 0.0 3.0 0.00 0.02 0.00 86 1020.0
20260901133535 61 0 1.0 4.0 0.00 0.02 0.00 86 1019.9
20260901133109 61 13 1.0 4.0 0.00 0.02 0.00 87 1019.8
20260901132536 61 18 1.0 5.0 0.00 0.02 0.00 87 1019.7
20260901132036 61 17 3.0 5.0 0.00 0.02 0.00 87 1019.6
20260901131601 60 5 2.0 5.0 0.00 0.02 0.00 87 1019.4
20260901131036 60 25 2.0 4.0 0.00 0.02 0.00 88 1019.4
20260901130536 60 40 2.0 4.0 0.00 0.02 0.00 88 1019.4
20260901130103 60 342 1.0 4.0 0.00 0.02 0.00 87 1019.4
20260901125535 60 305 0.0 3.0 0.00 0.02 0.00 87 1019.4
20260901125035 61 320 0.0 2.0 0.00 0.02 0.00 87 1019.4
20260901124602 61 0 0.0 3.0 0.00 0.02 0.00 87 1019.2
20260901124036 61 14 0.0 3.0 0.00 0.02 0.00 87 1019.1
20260901123536 61 15 0.0 3.0 0.00 0.02 0.00 87 1019.2
20260901123056 61 0 0.0 2.0 0.00 0.02 0.00 87 1019.1
20260901122535 61 0 0.0 3.0 0.00 0.02 0.00 87 1019.1
20260901122037 61 75 1.0 3.0 0.00 0.02 0.00 87 1019.0
20260901121556 61 75 1.0 3.0 0.00 0.02 0.00 87 1018.9
20260901121035 61 0 0.0 2.0 0.00 0.02 0.00 86 1019.0
20260901120538 61 0 0.0 1.0 0.00 0.02 0.00 86 1019.0
20260901120103 61 0 0.0 1.0 0.00 0.02 0.00 86 1018.9
20260901115538 61 75 0.0 0.0 0.00 0.02 0.00 86 1018.9
20260901115042 62 0 0.0 0.0 0.00 0.02 0.00 85 1018.9
20260901114559 62 0 0.0 2.0 0.00 0.02 0.00 85 1018.9
20260901114040 62 0 0.0 2.0 0.00 0.02 0.00 85 1018.8
20260901113537 62 75 0.0 2.0 0.00 0.02 0.00 85 1018.8
20260901113056 62 123 0.0 1.0 0.00 0.02 0.00 85 1018.9
20260901112534 62 0 0.0 1.0 0.00 0.02 0.00 85 1018.9
20260901112035 62 0 0.0 1.0 0.00 0.02 0.00 84 1018.9
20260901111605 62 0 0.0 3.0 0.00 0.02 0.00 84 1019.0
20260901111034 62 0 0.0 3.0 0.00 0.02 0.00 84 1018.9
20260901110536 62 123 0.0 3.0 0.00 0.02 0.00 84 1018.9
20260901105538 62 124 1.0 3.0 0.00 0.02 0.00 84 1018.9
20260901105038 62 121 0.0 3.0 0.00 0.02 0.00 84 1018.8
20260901104602 62 117 1.0 3.0 0.00 0.02 0.00 84 1018.9
20260901104035 62 0 1.0 3.0 0.00 0.02 0.00 84 1019.0
20260901103537 62 0 1.0 3.0 0.00 0.02 0.00 84 1019.1
20260901103058 62 116 1.0 3.0 0.00 0.02 0.00 84 1019.1
20260901102537 62 0 0.0 3.0 0.00 0.02 0.00 85 1019.0
20260901102038 62 115 0.0 2.0 0.00 0.02 0.00 85 1019.1
20260901101556 62 0 0.0 2.0 0.00 0.02 0.00 85 1019.1
20260901101038 63 0 0.0 2.0 0.00 0.02 0.00 85 1019.3
20260901100538 63 116 0.0 4.0 0.00 0.02 0.00 86 1019.3
20260901100054 62 116 2.0 4.0 0.00 0.02 0.00 86 1019.4
20260901095538 62 116 2.0 4.0 0.00 0.02 0.00 86 1019.5
20260901095038 62 116 1.0 3.0 0.00 0.02 0.00 87 1019.4
20260901094600 62 113 0.0 3.0 0.00 0.02 0.00 87 1019.3
20260901094037 62 133 0.0 2.0 0.00 0.02 0.00 87 1019.4
20260901093537 62 133 0.0 2.0 0.00 0.02 0.00 87 1019.6
20260901093100 62 0 0.0 0.0 0.00 0.02 0.00 87 1019.7
20260901092537 62 0 0.0 0.0 0.00 0.02 0.00 87 1019.7
20260901092037 62 0 0.0 0.0 0.00 0.02 0.00 87 1019.7
20260901091607 62 0 0.0 0.0 0.00 0.02 0.00 86 1019.7
20260901091039 63 0 0.0 0.0 0.00 0.02 0.00 86 1019.6
20260901090539 63 0 0.0 0.0 0.00 0.02 0.00 86 1019.6
20260901090104 63 0 0.0 0.0 0.00 0.02 0.00 86 1019.8
20260901085537 63 0 0.0 1.0 0.00 0.02 0.00 86 1019.9
20260901085038 63 0 0.0 1.0 0.00 0.02 0.00 86 1020.0
20260901084553 63 0 0.0 1.0 0.00 0.02 0.00 86 1019.9
20260901084037 63 0 0.0 0.0 0.00 0.02 0.00 86 1020.0
20260901083538 63 0 0.0 0.0 0.00 0.02 0.00 86 1020.1
20260901083101 63 0 0.0 1.0 0.00 0.02 0.00 86 1020.1
20260901082538 63 0 0.0 2.0 0.00 0.02 0.00 86 1020.2
20260901082037 63 0 0.0 2.0 0.00 0.02 0.00 85 1020.3
20260901081559 63 0 0.0 3.0 0.00 0.02 0.00 86 1020.5
20260901081038 63 133 1.0 4.0 0.00 0.02 0.00 86 1020.6
20260901080538 63 147 1.0 4.0 0.00 0.02 0.00 86 1020.6
20260901080112 63 148 1.0 4.0 0.00 0.02 0.00 86 1020.7
20260901075538 63 156 1.0 3.0 0.00 0.02 0.00 86 1020.9
20260901075037 63 121 1.0 3.0 0.00 0.02 0.00 86 1020.8
20260901074557 63 121 1.0 3.0 0.00 0.02 0.00 86 1020.8
20260901074037 63 125 1.0 3.0 0.00 0.02 0.00 86 1020.9
20260901073537 63 119 0.0 3.0 0.00 0.02 0.00 86 1020.9
20260901073056 63 118 0.0 3.0 0.00 0.02 0.00 86 1020.9
20260901072537 63 125 0.0 6.0 0.00 0.02 0.00 87 1020.8
20260901072037 63 97 2.0 7.0 0.00 0.02 0.00 86 1020.8
20260901071604 63 94 2.0 7.0 0.00 0.02 0.00 86 1020.9
20260901071036 63 124 3.0 8.0 0.00 0.02 0.00 85 1020.9
20260901070537 63 132 3.0 8.0 0.00 0.02 0.00 84 1021.0
20260901070104 63 138 2.0 8.0 0.00 0.02 0.00 83 1021.3
20260901065538 63 94 3.0 8.0 0.00 0.02 0.00 83 1021.1
20260901065038 64 137 2.0 8.0 0.00 0.02 0.00 83 1020.8
20260901064608 63 90 2.0 8.0 0.00 0.02 0.00 83 1020.5
20260901064038 63 112 3.0 8.0 0.00 0.02 0.00 83 1020.5
20260901063538 63 128 1.0 3.0 0.00 0.02 0.00 82 1020.3
20260901063114 63 204 0.0 3.0 0.00 0.02 0.00 82 1020.0
20260901062537 63 0 0.0 2.0 0.00 0.02 0.00 82 1020.1
20260901062037 63 0 0.0 1.0 0.00 0.02 0.00 82 1020.0
20260901061559 63 0 0.0 1.0 0.00 0.02 0.00 83 1019.9
20260901061038 63 0 0.0 0.0 0.00 0.02 0.00 83 1019.9
20260901060538 63 0 0.0 0.0 0.00 0.02 0.00 83 1019.9
20260901060054 63 0 0.0 1.0 0.00 0.02 0.00 83 1019.9
20260901055537 63 0 0.0 2.0 0.00 0.02 0.02 83 1020.0
20260901055038 63 249 0.0 2.0 0.00 0.02 0.02 84 1020.1
20260901054600 63 0 0.0 3.0 0.00 0.02 0.02 84 1020.3
20260901054038 63 250 1.0 4.0 0.00 0.02 0.02 84 1020.3
20260901053540 63 240 2.0 4.0 0.00 0.02 0.02 84 1020.5
20260901053114 63 243 2.0 4.0 0.00 0.02 0.02 83 1020.6
20260901052537 64 254 3.0 4.0 0.00 0.02 0.02 83 1020.6
20260901052037 64 258 0.0 2.0 0.01 0.02 0.02 82 1020.7
20260901051559 64 0 0.0 1.0 0.01 0.02 0.02 82 1020.7
20260901051037 64 0 0.0 1.0 0.02 0.02 0.02 82 1020.6
20260901050537 64 92 0.0 2.0 0.02 0.02 0.02 81 1020.6
20260901050055 64 0 0.0 6.0 0.02 0.02 0.02 80 1020.3
20260901045537 64 0 0.0 6.0 0.02 0.02 0.02 80 1020.3
20260901045037 64 93 3.0 6.0 0.02 0.02 0.02 79 1020.3
20260901044550 64 42 0.0 3.0 0.02 0.02 0.02 78 1020.3
20260901044037 65 43 1.0 3.0 0.02 0.02 0.02 78 1020.3
20260901043537 65 0 0.0 5.0 0.02 0.02 0.02 75 1020.7
20260901043100 65 0 0.0 6.0 0.02 0.02 0.02 75 1021.3
20260901042537 66 179 3.0 9.0 0.02 0.02 0.02 73 1021.6
20260901042037 67 208 3.0 13.0 0.01 0.01 0.01 72 1021.8
20260901041557 68 162 4.0 14.0 0.01 0.01 0.01 69 1022.0
20260901041034 69 222 7.0 14.0 0.00 0.00 0.00 66 1022.1
20260901040537 70 216 6.0 15.0 0.00 0.00 0.00 62 1022.1
20260901040057 70 214 7.0 16.0 0.00 0.00 0.00 58 1022.2
20260901035536 71 167 9.0 18.0 0.00 0.00 0.00 56 1022.2
20260901035038 72 228 6.0 18.0 0.00 0.00 0.00 56 1022.3
20260901034558 72 170 8.0 18.0 0.00 0.00 0.00 51 1022.2
20260901034034 72 191 4.0 8.0 0.00 0.00 0.00 48 1022.1
20260901033534 72 238 1.0 8.0 0.00 0.00 0.00 47 1021.3
20260901033058 72 0 1.0 8.0 0.00 0.00 0.00 48 1020.9
20260901032535 72 285 2.0 9.0 0.00 0.00 0.00 48 1020.5
20260901032038 72 248 2.0 9.0 0.00 0.00 0.00 48 1020.4
20260901031556 72 330 4.0 9.0 0.00 0.00 0.00 47 1020.3
20260901031034 72 2 3.0 6.0 0.00 0.00 0.00 48 1020.3
20260901030537 72 17 2.0 9.0 0.00 0.00 0.00 49 1020.3
20260901030054 73 309 1.0 9.0 0.00 0.00 0.00 49 1020.2
20260901025537 73 347 2.0 10.0 0.00 0.00 0.00 48 1020.0
20260901025037 73 279 3.0 10.0 0.00 0.00 0.00 48 1020.0
20260901024602 73 313 3.0 10.0 0.00 0.00 0.00 47 1020.1